Location: El Centro
(32.7920°N, 115.5620°W)
Time: 03:24:40
(UTC-08:00)

Hamsat - Visible Passes

Search period start: 22 December 2014 00:00
Search period end: 01 January 2015 00:00
Orbit: 593 x 625 km, 97.6° (Epoch: 22 December)

Date Brightness Start Highest point End Pass type
(mag) Time Alt. Az. Time Alt. Az. Time Alt. Az.
22 Dec ? 04:52:10 10° NNE 04:56:10 36° E 05:00:06 10° SSE visible
22 Dec ? 17:16:18 10° SSW 17:20:14 35° W 17:24:13 10° NNW visible
23 Dec ? 05:05:48 10° NNE 05:10:03 55° E 05:14:12 10° S visible
23 Dec ? 17:30:40 10° SSW 17:34:08 24° W 17:37:39 10° NW visible
24 Dec ? 05:19:34 10° NNE 05:23:53 84° ESE 05:28:08 10° S visible
24 Dec ? 17:45:20 10° SW 17:48:03 16° W 17:50:48 10° NW visible
25 Dec ? 05:33:25 10° N 05:37:41 65° WNW 05:41:52 10° SSW visible
25 Dec ? 18:00:52 10° WSW 18:01:59 11° W 18:03:07 10° WNW visible
26 Dec ? 04:13:43 10° ENE 04:15:22 12° E 04:17:00 10° ESE visible
26 Dec ? 05:47:23 10° N 05:51:26 43° WNW 05:55:27 10° SW visible
27 Dec ? 04:26:21 10° NE 04:29:16 18° E 04:32:09 10° SE visible
27 Dec ? 06:01:27 10° NNW 06:05:10 29° WNW 06:08:49 10° SW visible
28 Dec ? 04:39:32 10° NE 04:43:08 26° E 04:46:40 10° SSE visible
28 Dec ? 06:15:42 10° NNW 06:18:50 20° WNW 06:21:57 10° WSW visible
29 Dec ? 04:52:58 10° NNE 04:56:57 38° E 05:00:53 10° SSE visible
29 Dec ? 17:17:06 10° SSW 17:21:00 33° W 17:24:57 10° NNW visible
30 Dec ? 05:06:32 10° NNE 05:10:45 58° E 05:14:53 10° S visible
30 Dec ? 17:31:24 10° SSW 17:34:49 23° W 17:38:16 10° NW visible
31 Dec ? 05:20:13 10° NNE 05:24:30 88° ESE 05:28:42 10° SSW visible
31 Dec ? 17:46:02 10° SW 17:48:39 16° W 17:51:17 10° NW visible
